Location: Étouvelles
(49.5207°N, 3.5808°E)
Time: 06:50:30
(UTC+00:00)

DMSP B5D2-2 - Pass Details

Date: 03 February 2023
Orbit: 788 x 805 km, 98.3° (Epoch: 29 March)

Event Time Altitude Azimuth Distance (km) Brightness Sun altitude
Rises 17:26:37 0° 16° (NNE) 3,334 7.0 -7.3°
Reaches altitude 10° 17:29:00 10° 20° (NNE) 2,397 6.2 -7.6°
Maximum altitude 17:34:16 64° 102° (ESE) 890 4.1 -8.4°
Drops below altitude 10° 17:39:29 10° 183° (S) 2,371 6.8 -9.3°
Sets 17:41:49 0° 187° (S) 3,294 7.6 -9.6°
